| time (UTC) | temp F | wind direction | speed MPH | gust MPH | rain 1hr in | rain 24hr in | rain mn in | humidity % | barometer mb |
| 20260902061611 | 59 | 0 | 0.0 | 4.0 | 0.00 | 0.00 | 0.00 | 88 | 1021.0 |
| 20260902061044 | 59 | 167 | 0.0 | 4.0 | 0.00 | 0.00 | 0.00 | 88 | 1021.0 |
| 20260902060545 | 59 | 171 | 0.0 | 4.0 | 0.00 | 0.00 | 0.00 | 88 | 1020.7 |
| 20260902055543 | 59 | 190 | 0.0 | 4.0 | 0.00 | 0.00 | 0.00 | 88 | 1021.0 |
| 20260902055043 | 59 | 0 | 0.0 | 2.0 | 0.00 | 0.00 | 0.00 | 88 | 1021.3 |
| 20260902054603 | 59 | 0 | 0.0 | 2.0 | 0.00 | 0.00 | 0.00 | 87 | 1021.2 |
| 20260902054043 | 59 | 0 | 0.0 | 2.0 | 0.00 | 0.00 | 0.00 | 87 | 1021.1 |
| 20260902053544 | 59 | 0 | 0.0 | 3.0 | 0.00 | 0.00 | 0.00 | 87 | 1021.1 |
| 20260902053102 | 59 | 0 | 0.0 | 3.0 | 0.00 | 0.00 | 0.00 | 87 | 1021.0 |
| 20260902052542 | 59 | 0 | 0.0 | 3.0 | 0.00 | 0.00 | 0.00 | 87 | 1020.8 |
| 20260902052042 | 60 | 0 | 0.0 | 4.0 | 0.00 | 0.00 | 0.00 | 87 | 1020.9 |
| 20260902051600 | 60 | 0 | 0.0 | 4.0 | 0.00 | 0.00 | 0.00 | 87 | 1020.8 |
| 20260902051043 | 60 | 204 | 0.0 | 4.0 | 0.00 | 0.00 | 0.00 | 87 | 1020.9 |
| 20260902050546 | 60 | 0 | 0.0 | 4.0 | 0.00 | 0.00 | 0.00 | 87 | 1021.0 |
| 20260902050104 | 60 | 0 | 0.0 | 4.0 | 0.00 | 0.00 | 0.00 | 86 | 1021.1 |
| 20260902045543 | 60 | 0 | 0.0 | 4.0 | 0.00 | 0.00 | 0.00 | 86 | 1021.0 |
| 20260902045043 | 60 | 214 | 0.0 | 4.0 | 0.00 | 0.00 | 0.00 | 86 | 1021.0 |
| 20260902044604 | 60 | 210 | 0.0 | 4.0 | 0.00 | 0.00 | 0.00 | 86 | 1021.1 |
| 20260902044043 | 60 | 0 | 1.0 | 4.0 | 0.00 | 0.00 | 0.00 | 86 | 1021.0 |
| 20260902043545 | 60 | 207 | 1.0 | 4.0 | 0.00 | 0.00 | 0.00 | 86 | 1021.1 |
| 20260902043111 | 60 | 207 | 1.0 | 6.0 | 0.00 | 0.00 | 0.00 | 86 | 1021.1 |
| 20260902042545 | 60 | 209 | 1.0 | 6.0 | 0.00 | 0.00 | 0.00 | 86 | 1021.2 |
| 20260902042044 | 60 | 212 | 1.0 | 4.0 | 0.00 | 0.00 | 0.00 | 86 | 1021.1 |
| 20260902041603 | 60 | 225 | 1.0 | 4.0 | 0.00 | 0.00 | 0.00 | 85 | 1021.1 |
| 20260902041043 | 60 | 219 | 1.0 | 4.0 | 0.00 | 0.00 | 0.00 | 85 | 1021.0 |
| 20260902040543 | 60 | 218 | 1.0 | 4.0 | 0.00 | 0.00 | 0.00 | 85 | 1021.0 |
| 20260902040104 | 60 | 0 | 1.0 | 4.0 | 0.00 | 0.00 | 0.00 | 85 | 1021.2 |
| 20260902035545 | 60 | 213 | 1.0 | 4.0 | 0.00 | 0.00 | 0.00 | 85 | 1021.1 |
| 20260902035043 | 61 | 212 | 1.0 | 5.0 | 0.00 | 0.00 | 0.00 | 85 | 1021.1 |
| 20260902034557 | 61 | 209 | 2.0 | 5.0 | 0.00 | 0.00 | 0.00 | 84 | 1021.1 |
| 20260902034046 | 61 | 210 | 2.0 | 5.0 | 0.00 | 0.00 | 0.00 | 84 | 1021.1 |
| 20260902033543 | 61 | 222 | 1.0 | 5.0 | 0.00 | 0.00 | 0.00 | 84 | 1021.2 |
| 20260902033100 | 61 | 219 | 2.0 | 5.0 | 0.00 | 0.00 | 0.00 | 84 | 1021.2 |
| 20260902032544 | 61 | 215 | 2.0 | 5.0 | 0.00 | 0.00 | 0.00 | 84 | 1021.3 |
| 20260902032043 | 61 | 213 | 1.0 | 4.0 | 0.00 | 0.00 | 0.00 | 84 | 1021.3 |
| 20260902031604 | 61 | 234 | 1.0 | 4.0 | 0.00 | 0.00 | 0.00 | 84 | 1021.3 |
| 20260902031045 | 61 | 255 | 1.0 | 4.0 | 0.00 | 0.00 | 0.00 | 84 | 1021.3 |
| 20260902030547 | 61 | 0 | 2.0 | 4.0 | 0.00 | 0.00 | 0.00 | 84 | 1021.3 |
| 20260902030058 | 61 | 213 | 1.0 | 4.0 | 0.00 | 0.00 | 0.00 | 84 | 1021.1 |
| 20260902025541 | 61 | 215 | 2.0 | 4.0 | 0.00 | 0.00 | 0.00 | 84 | 1021.3 |
| 20260902025043 | 61 | 220 | 2.0 | 4.0 | 0.00 | 0.00 | 0.00 | 83 | 1021.3 |
| 20260902024603 | 61 | 0 | 2.0 | 4.0 | 0.00 | 0.00 | 0.00 | 83 | 1021.3 |
| 20260902024044 | 61 | 0 | 2.0 | 5.0 | 0.00 | 0.00 | 0.00 | 83 | 1021.2 |
| 20260902023543 | 61 | 213 | 2.0 | 5.0 | 0.00 | 0.00 | 0.00 | 83 | 1021.4 |
| 20260902023105 | 61 | 0 | 1.0 | 4.0 | 0.00 | 0.00 | 0.00 | 83 | 1021.2 |
| 20260902022544 | 61 | 207 | 2.0 | 4.0 | 0.00 | 0.00 | 0.00 | 83 | 1021.3 |
| 20260902022044 | 61 | 213 | 0.0 | 2.0 | 0.00 | 0.00 | 0.00 | 83 | 1021.4 |
| 20260902021605 | 61 | 0 | 0.0 | 4.0 | 0.00 | 0.00 | 0.00 | 83 | 1021.4 |
| 20260902021043 | 61 | 213 | 0.0 | 4.0 | 0.00 | 0.00 | 0.00 | 83 | 1021.3 |
| 20260902020543 | 61 | 213 | 1.0 | 4.0 | 0.00 | 0.00 | 0.00 | 83 | 1021.2 |
| 20260902020100 | 61 | 0 | 0.0 | 4.0 | 0.00 | 0.00 | 0.00 | 83 | 1021.3 |
| 20260902015548 | 61 | 209 | 1.0 | 4.0 | 0.00 | 0.00 | 0.00 | 83 | 1021.3 |
| 20260902015043 | 61 | 0 | 0.0 | 3.0 | 0.00 | 0.00 | 0.00 | 83 | 1021.4 |
| 20260902014558 | 61 | 238 | 1.0 | 3.0 | 0.00 | 0.00 | 0.00 | 83 | 1021.4 |
| 20260902014043 | 61 | 244 | 0.0 | 3.0 | 0.00 | 0.00 | 0.00 | 83 | 1021.5 |
| 20260902013543 | 61 | 0 | 0.0 | 3.0 | 0.00 | 0.00 | 0.00 | 83 | 1021.5 |
| 20260902013059 | 61 | 244 | 1.0 | 4.0 | 0.00 | 0.00 | 0.00 | 83 | 1021.6 |
| 20260902012544 | 61 | 0 | 1.0 | 4.0 | 0.00 | 0.00 | 0.00 | 83 | 1021.6 |
| 20260902012043 | 61 | 245 | 1.0 | 4.0 | 0.00 | 0.00 | 0.00 | 82 | 1021.6 |
| 20260902011601 | 61 | 240 | 1.0 | 4.0 | 0.00 | 0.00 | 0.00 | 82 | 1021.7 |
| 20260902011043 | 61 | 242 | 1.0 | 4.0 | 0.00 | 0.00 | 0.00 | 82 | 1021.9 |
| 20260902010546 | 61 | 0 | 2.0 | 5.0 | 0.00 | 0.00 | 0.00 | 82 | 1021.8 |
| 20260902010121 | 61 | 244 | 2.0 | 5.0 | 0.00 | 0.00 | 0.00 | 82 | 1021.8 |
| 20260902005545 | 61 | 238 | 1.0 | 4.0 | 0.00 | 0.00 | 0.00 | 82 | 1021.8 |
| 20260902005046 | 61 | 237 | 1.0 | 4.0 | 0.00 | 0.00 | 0.00 | 82 | 1021.8 |
| 20260902004603 | 61 | 237 | 2.0 | 4.0 | 0.00 | 0.00 | 0.00 | 82 | 1021.9 |
| 20260902004044 | 61 | 238 | 1.0 | 4.0 | 0.00 | 0.00 | 0.00 | 82 | 1021.8 |
| 20260902003543 | 61 | 236 | 2.0 | 4.0 | 0.00 | 0.00 | 0.00 | 81 | 1021.9 |
| 20260902003101 | 62 | 242 | 0.0 | 2.0 | 0.00 | 0.00 | 0.00 | 81 | 1021.8 |
| 20260902002547 | 62 | 0 | 0.0 | 3.0 | 0.00 | 0.00 | 0.00 | 81 | 1021.7 |
| 20260902002042 | 62 | 0 | 0.0 | 3.0 | 0.00 | 0.00 | 0.00 | 81 | 1021.8 |
| 20260902001602 | 62 | 243 | 1.0 | 4.0 | 0.00 | 0.00 | 0.00 | 80 | 1021.8 |
| 20260902001042 | 62 | 244 | 1.0 | 5.0 | 0.00 | 0.00 | 0.00 | 80 | 1021.9 |
| 20260902000542 | 62 | 250 | 2.0 | 5.0 | 0.00 | 0.00 | 0.00 | 80 | 1022.0 |
| 20260901235544 | 62 | 201 | 0.0 | 4.0 | 0.00 | 0.00 | 0.00 | 80 | 1022.0 |
| 20260901235043 | 62 | 200 | 1.0 | 4.0 | 0.00 | 0.00 | 0.00 | 80 | 1022.0 |
| 20260901234601 | 62 | 242 | 1.0 | 3.0 | 0.00 | 0.00 | 0.00 | 79 | 1022.0 |
| 20260901234043 | 62 | 0 | 1.0 | 3.0 | 0.00 | 0.00 | 0.00 | 79 | 1022.1 |
| 20260901233543 | 62 | 242 | 0.0 | 4.0 | 0.00 | 0.00 | 0.00 | 79 | 1022.0 |
| 20260901233105 | 62 | 244 | 1.0 | 4.0 | 0.00 | 0.00 | 0.00 | 79 | 1022.0 |
| 20260901232543 | 62 | 0 | 1.0 | 4.0 | 0.00 | 0.00 | 0.00 | 79 | 1022.1 |
| 20260901232044 | 62 | 218 | 2.0 | 4.0 | 0.00 | 0.00 | 0.00 | 79 | 1022.1 |
| 20260901231602 | 62 | 240 | 2.0 | 4.0 | 0.00 | 0.00 | 0.00 | 79 | 1022.1 |
| 20260901231043 | 62 | 229 | 1.0 | 4.0 | 0.00 | 0.00 | 0.00 | 79 | 1022.1 |
| 20260901230543 | 62 | 214 | 2.0 | 4.0 | 0.00 | 0.00 | 0.00 | 79 | 1022.1 |
| 20260901230105 | 62 | 0 | 1.0 | 4.0 | 0.00 | 0.00 | 0.00 | 79 | 1022.1 |
| 20260901225543 | 62 | 213 | 2.0 | 4.0 | 0.00 | 0.00 | 0.00 | 79 | 1022.0 |
| 20260901225043 | 62 | 251 | 1.0 | 4.0 | 0.00 | 0.00 | 0.00 | 79 | 1021.9 |
| 20260901224603 | 62 | 233 | 0.0 | 4.0 | 0.00 | 0.00 | 0.00 | 79 | 1021.9 |
| 20260901224042 | 62 | 233 | 1.0 | 5.0 | 0.00 | 0.00 | 0.00 | 79 | 1022.0 |
| 20260901223543 | 62 | 236 | 2.0 | 6.0 | 0.00 | 0.00 | 0.00 | 79 | 1022.2 |
| 20260901223059 | 62 | 254 | 2.0 | 7.0 | 0.00 | 0.00 | 0.00 | 79 | 1022.1 |
| 20260901222546 | 62 | 228 | 2.0 | 7.0 | 0.00 | 0.00 | 0.00 | 79 | 1022.1 |
| 20260901222043 | 62 | 236 | 4.0 | 7.0 | 0.00 | 0.00 | 0.00 | 79 | 1022.2 |
| 20260901221624 | 62 | 242 | 3.0 | 7.0 | 0.00 | 0.00 | 0.00 | 79 | 1022.2 |
| 20260901221042 | 63 | 209 | 1.0 | 5.0 | 0.00 | 0.00 | 0.00 | 78 | 1022.1 |
| 20260901220548 | 63 | 253 | 2.0 | 5.0 | 0.00 | 0.00 | 0.00 | 78 | 1022.1 |
| 20260901220107 | 63 | 237 | 2.0 | 5.0 | 0.00 | 0.00 | 0.00 | 78 | 1022.1 |
| 20260901215543 | 63 | 239 | 1.0 | 6.0 | 0.00 | 0.00 | 0.00 | 78 | 1022.1 |
| 20260901215043 | 63 | 207 | 2.0 | 6.0 | 0.00 | 0.00 | 0.00 | 77 | 1022.2 |
| 20260901214600 | 63 | 250 | 1.0 | 5.0 | 0.00 | 0.00 | 0.00 | 77 | 1022.2 |
| 20260901214042 | 63 | 263 | 1.0 | 5.0 | 0.00 | 0.00 | 0.00 | 77 | 1022.2 |
| 20260901213546 | 63 | 233 | 2.0 | 4.0 | 0.00 | 0.00 | 0.00 | 77 | 1022.2 |
| 20260901213109 | 63 | 238 | 1.0 | 7.0 | 0.00 | 0.00 | 0.00 | 76 | 1022.1 |
| 20260901212543 | 63 | 237 | 2.0 | 7.0 | 0.00 | 0.00 | 0.00 | 76 | 1022.2 |
| 20260901212044 | 63 | 241 | 3.0 | 9.0 | 0.00 | 0.00 | 0.00 | 76 | 1022.3 |
| 20260901211558 | 63 | 255 | 3.0 | 9.0 | 0.00 | 0.00 | 0.00 | 76 | 1022.4 |
| 20260901211043 | 63 | 233 | 2.0 | 6.0 | 0.00 | 0.00 | 0.00 | 75 | 1022.3 |
| 20260901210543 | 64 | 249 | 2.0 | 8.0 | 0.00 | 0.00 | 0.00 | 75 | 1022.3 |
| 20260901205546 | 64 | 198 | 3.0 | 7.0 | 0.00 | 0.00 | 0.00 | 74 | 1022.3 |
| 20260901205046 | 64 | 258 | 2.0 | 5.0 | 0.00 | 0.00 | 0.00 | 74 | 1022.2 |
| 20260901204558 | 64 | 245 | 3.0 | 5.0 | 0.00 | 0.00 | 0.00 | 74 | 1022.2 |
| 20260901204045 | 64 | 243 | 2.0 | 5.0 | 0.00 | 0.00 | 0.00 | 74 | 1022.1 |
| 20260901203544 | 64 | 219 | 2.0 | 7.0 | 0.00 | 0.00 | 0.00 | 74 | 1022.2 |
| 20260901203105 | 64 | 211 | 2.0 | 7.0 | 0.00 | 0.00 | 0.00 | 73 | 1022.1 |
| 20260901202543 | 64 | 251 | 1.0 | 9.0 | 0.00 | 0.00 | 0.00 | 73 | 1021.8 |
| 20260901202043 | 64 | 249 | 3.0 | 9.0 | 0.00 | 0.00 | 0.00 | 73 | 1021.9 |
| 20260901201600 | 65 | 259 | 3.0 | 9.0 | 0.00 | 0.00 | 0.00 | 72 | 1021.9 |
| 20260901201043 | 65 | 243 | 2.0 | 8.0 | 0.00 | 0.00 | 0.00 | 72 | 1022.0 |
| 20260901200542 | 65 | 231 | 3.0 | 12.0 | 0.00 | 0.00 | 0.00 | 71 | 1021.9 |
| 20260901200107 | 65 | 211 | 4.0 | 12.0 | 0.00 | 0.00 | 0.00 | 71 | 1021.9 |
| 20260901195542 | 65 | 229 | 2.0 | 7.0 | 0.00 | 0.00 | 0.00 | 71 | 1021.8 |
| 20260901195043 | 65 | 241 | 3.0 | 9.0 | 0.00 | 0.00 | 0.00 | 70 | 1021.8 |
| 20260901194605 | 66 | 252 | 5.0 | 9.0 | 0.00 | 0.00 | 0.00 | 70 | 1021.7 |
| 20260901194043 | 66 | 268 | 3.0 | 9.0 | 0.00 | 0.00 | 0.00 | 70 | 1021.7 |
| 20260901193543 | 66 | 219 | 2.0 | 10.0 | 0.00 | 0.00 | 0.00 | 69 | 1021.6 |
| 20260901193116 | 66 | 259 | 4.0 | 10.0 | 0.00 | 0.00 | 0.00 | 69 | 1021.5 |
| 20260901192542 | 66 | 211 | 5.0 | 10.0 | 0.00 | 0.00 | 0.00 | 68 | 1021.4 |
| 20260901192042 | 66 | 217 | 3.0 | 9.0 | 0.00 | 0.00 | 0.00 | 66 | 1021.5 |
| 20260901191558 | 67 | 243 | 3.0 | 9.0 | 0.00 | 0.00 | 0.00 | 65 | 1021.5 |
| 20260901191042 | 67 | 243 | 3.0 | 8.0 | 0.00 | 0.00 | 0.00 | 63 | 1021.5 |
| 20260901190542 | 67 | 240 | 3.0 | 7.0 | 0.00 | 0.00 | 0.00 | 63 | 1021.4 |
| 20260901190114 | 67 | 259 | 2.0 | 7.0 | 0.00 | 0.00 | 0.00 | 62 | 1021.3 |
| 20260901185542 | 67 | 250 | 3.0 | 8.0 | 0.00 | 0.00 | 0.00 | 61 | 1021.4 |
| 20260901185042 | 67 | 258 | 3.0 | 8.0 | 0.00 | 0.00 | 0.00 | 61 | 1021.4 |
| 20260901184607 | 67 | 198 | 4.0 | 8.0 | 0.00 | 0.00 | 0.00 | 61 | 1021.4 |
| 20260901184047 | 68 | 254 | 1.0 | 5.0 | 0.00 | 0.00 | 0.00 | 61 | 1021.3 |
| 20260901183547 | 68 | 246 | 2.0 | 5.0 | 0.00 | 0.00 | 0.00 | 61 | 1021.2 |
| 20260901183105 | 68 | 236 | 2.0 | 5.0 | 0.00 | 0.00 | 0.00 | 60 | 1021.1 |
| 20260901182548 | 68 | 242 | 2.0 | 6.0 | 0.00 | 0.00 | 0.00 | 60 | 1021.2 |
| 20260901182045 | 68 | 248 | 2.0 | 7.0 | 0.00 | 0.00 | 0.00 | 59 | 1021.1 |
| 20260901181600 | 69 | 258 | 2.0 | 7.0 | 0.00 | 0.00 | 0.00 | 59 | 1021.1 |
| 20260901181044 | 69 | 238 | 3.0 | 7.0 | 0.00 | 0.00 | 0.00 | 59 | 1021.2 |
| 20260901180544 | 69 | 269 | 2.0 | 8.0 | 0.00 | 0.00 | 0.00 | 58 | 1021.5 |
| 20260901180106 | 69 | 259 | 4.0 | 8.0 | 0.00 | 0.00 | 0.00 | 58 | 1021.4 |
| 20260901175547 | 69 | 321 | 3.0 | 10.0 | 0.00 | 0.00 | 0.00 | 57 | 1021.3 |
| 20260901175043 | 70 | 261 | 5.0 | 10.0 | 0.00 | 0.00 | 0.00 | 57 | 1021.4 |
| 20260901174606 | 70 | 239 | 3.0 | 8.0 | 0.00 | 0.00 | 0.00 | 56 | 1021.3 |
| 20260901174043 | 70 | 188 | 4.0 | 12.0 | 0.00 | 0.00 | 0.00 | 56 | 1021.3 |
| 20260901173544 | 70 | 263 | 4.0 | 12.0 | 0.00 | 0.00 | 0.00 | 56 | 1021.2 |
| 20260901173105 | 70 | 250 | 3.0 | 9.0 | 0.00 | 0.00 | 0.00 | 56 | 1021.3 |
| 20260901172544 | 70 | 312 | 4.0 | 8.0 | 0.00 | 0.00 | 0.00 | 56 | 1021.3 |
| 20260901172043 | 70 | 278 | 3.0 | 8.0 | 0.00 | 0.00 | 0.00 | 56 | 1021.3 |
| 20260901171609 | 70 | 303 | 3.0 | 8.0 | 0.00 | 0.00 | 0.00 | 57 | 1021.3 |
| 20260901171044 | 71 | 239 | 4.0 | 8.0 | 0.00 | 0.00 | 0.00 | 56 | 1021.3 |
| 20260901170544 | 71 | 230 | 3.0 | 11.0 | 0.00 | 0.00 | 0.00 | 56 | 1021.3 |
| 20260901170158 | 71 | 243 | 4.0 | 11.0 | 0.00 | 0.00 | 0.00 | 56 | 1021.2 |
| 20260901165546 | 71 | 249 | 5.0 | 10.0 | 0.00 | 0.00 | 0.00 | 55 | 1021.3 |
| 20260901165046 | 71 | 279 | 5.0 | 9.0 | 0.00 | 0.00 | 0.00 | 55 | 1021.3 |
| 20260901164604 | 71 | 213 | 3.0 | 9.0 | 0.00 | 0.00 | 0.00 | 56 | 1021.2 |
| 20260901164044 | 70 | 236 | 4.0 | 12.0 | 0.00 | 0.00 | 0.00 | 56 | 1021.3 |
| 20260901163543 | 70 | 272 | 3.0 | 12.0 | 0.00 | 0.00 | 0.00 | 56 | 1021.2 |
| 20260901163107 | 70 | 245 | 6.0 | 13.0 | 0.00 | 0.00 | 0.00 | 55 | 1021.3 |
| 20260901162546 | 70 | 254 | 6.0 | 13.0 | 0.00 | 0.00 | 0.00 | 55 | 1021.3 |
| 20260901162043 | 70 | 246 | 6.0 | 13.0 | 0.00 | 0.00 | 0.00 | 56 | 1021.2 |
| 20260901161614 | 71 | 247 | 4.0 | 13.0 | 0.00 | 0.00 | 0.00 | 56 | 1021.4 |
| 20260901161044 | 71 | 231 | 5.0 | 12.0 | 0.00 | 0.00 | 0.00 | 57 | 1021.4 |
| 20260901160543 | 70 | 232 | 6.0 | 12.0 | 0.00 | 0.00 | 0.00 | 57 | 1021.4 |
| 20260901160106 | 70 | 271 | 4.0 | 11.0 | 0.00 | 0.00 | 0.00 | 58 | 1021.4 |
| 20260901155544 | 70 | 303 | 5.0 | 11.0 | 0.00 | 0.00 | 0.00 | 58 | 1021.4 |
| 20260901155044 | 70 | 290 | 6.0 | 11.0 | 0.00 | 0.00 | 0.00 | 57 | 1021.4 |
| 20260901154607 | 70 | 211 | 3.0 | 11.0 | 0.00 | 0.00 | 0.00 | 56 | 1021.5 |
| 20260901154044 | 70 | 263 | 2.0 | 13.0 | 0.00 | 0.00 | 0.00 | 56 | 1021.5 |
| 20260901153544 | 70 | 279 | 5.0 | 13.0 | 0.00 | 0.00 | 0.00 | 56 | 1021.5 |
| 20260901153124 | 70 | 236 | 3.0 | 8.0 | 0.00 | 0.00 | 0.00 | 56 | 1021.5 |
| 20260901152543 | 70 | 237 | 3.0 | 12.0 | 0.00 | 0.00 | 0.00 | 55 | 1021.5 |
| 20260901152043 | 70 | 286 | 5.0 | 12.0 | 0.00 | 0.00 | 0.00 | 55 | 1021.5 |
| 20260901151604 | 70 | 211 | 5.0 | 11.0 | 0.00 | 0.00 | 0.00 | 54 | 1021.6 |
| 20260901151044 | 70 | 228 | 4.0 | 11.0 | 0.00 | 0.00 | 0.00 | 56 | 1021.6 |
| 20260901150548 | 70 | 235 | 3.0 | 10.0 | 0.00 | 0.00 | 0.00 | 57 | 1021.5 |
| 20260901150059 | 70 | 281 | 3.0 | 10.0 | 0.00 | 0.00 | 0.00 | 56 | 1021.5 |
| 20260901145544 | 70 | 266 | 4.0 | 13.0 | 0.00 | 0.00 | 0.00 | 57 | 1021.5 |
| 20260901145043 | 70 | 237 | 6.0 | 13.0 | 0.00 | 0.00 | 0.00 | 57 | 1021.6 |
| 20260901144601 | 70 | 249 | 5.0 | 12.0 | 0.00 | 0.00 | 0.00 | 57 | 1021.7 |
| 20260901144045 | 70 | 207 | 4.0 | 12.0 | 0.00 | 0.00 | 0.00 | 57 | 1021.7 |
| 20260901143543 | 70 | 190 | 6.0 | 11.0 | 0.00 | 0.00 | 0.00 | 56 | 1021.7 |
| 20260901143103 | 70 | 238 | 6.0 | 12.0 | 0.00 | 0.00 | 0.00 | 57 | 1021.6 |
| 20260901142545 | 70 | 252 | 7.0 | 16.0 | 0.00 | 0.00 | 0.00 | 56 | 1021.7 |
| 20260901142043 | 70 | 232 | 7.0 | 16.0 | 0.00 | 0.00 | 0.00 | 55 | 1021.7 |
| 20260901141558 | 71 | 236 | 8.0 | 16.0 | 0.00 | 0.00 | 0.00 | 55 | 1021.7 |
| 20260901141044 | 72 | 208 | 6.0 | 17.0 | 0.00 | 0.00 | 0.00 | 55 | 1021.7 |
| 20260901140543 | 72 | 217 | 9.0 | 17.0 | 0.00 | 0.00 | 0.00 | 53 | 1021.7 |
| 20260901140103 | 72 | 207 | 7.0 | 15.0 | 0.00 | 0.00 | 0.00 | 53 | 1021.5 |
| 20260901135546 | 71 | 281 | 6.0 | 15.0 | 0.00 | 0.00 | 0.00 | 55 | 1021.5 |
| 20260901135044 | 71 | 280 | 5.0 | 12.0 | 0.00 | 0.00 | 0.00 | 54 | 1021.4 |
| 20260901134601 | 70 | 238 | 5.0 | 12.0 | 0.00 | 0.00 | 0.00 | 56 | 1021.6 |
| 20260901134043 | 69 | 211 | 6.0 | 11.0 | 0.00 | 0.00 | 0.00 | 57 | 1021.5 |
| 20260901133543 | 69 | 259 | 3.0 | 10.0 | 0.00 | 0.00 | 0.00 | 58 | 1021.6 |
| 20260901133057 | 69 | 209 | 3.0 | 15.0 | 0.00 | 0.00 | 0.00 | 58 | 1021.6 |
| 20260901132544 | 69 | 233 | 7.0 | 15.0 | 0.00 | 0.00 | 0.00 | 58 | 1021.7 |
| 20260901132044 | 69 | 259 | 3.0 | 8.0 | 0.00 | 0.00 | 0.00 | 58 | 1021.7 |
| 20260901131614 | 69 | 317 | 3.0 | 9.0 | 0.00 | 0.00 | 0.00 | 58 | 1021.8 |
| 20260901131044 | 69 | 225 | 4.0 | 12.0 | 0.00 | 0.00 | 0.00 | 58 | 1021.8 |
| 20260901130544 | 69 | 302 | 6.0 | 12.0 | 0.00 | 0.00 | 0.00 | 58 | 1021.9 |
| 20260901130105 | 69 | 228 | 4.0 | 10.0 | 0.00 | 0.00 | 0.00 | 58 | 1021.9 |
| 20260901125543 | 70 | 217 | 4.0 | 10.0 | 0.00 | 0.00 | 0.00 | 58 | 1021.9 |
| 20260901125044 | 69 | 196 | 4.0 | 10.0 | 0.00 | 0.00 | 0.00 | 58 | 1022.0 |
| 20260901124602 | 69 | 196 | 5.0 | 10.0 | 0.00 | 0.00 | 0.00 | 59 | 1022.0 |
| 20260901124044 | 69 | 193 | 5.0 | 11.0 | 0.00 | 0.00 | 0.00 | 59 | 1022.0 |
| 20260901123543 | 69 | 221 | 4.0 | 11.0 | 0.00 | 0.00 | 0.00 | 59 | 1022.0 |
| 20260901123105 | 69 | 209 | 6.0 | 11.0 | 0.00 | 0.00 | 0.00 | 59 | 1021.9 |
| 20260901122544 | 68 | 202 | 4.0 | 9.0 | 0.00 | 0.00 | 0.00 | 61 | 1022.1 |
| 20260901122043 | 68 | 279 | 2.0 | 9.0 | 0.00 | 0.00 | 0.00 | 62 | 1022.1 |
| 20260901121601 | 68 | 244 | 2.0 | 11.0 | 0.00 | 0.00 | 0.00 | 61 | 1022.1 |
| 20260901121044 | 68 | 204 | 5.0 | 11.0 | 0.00 | 0.00 | 0.00 | 60 | 1022.2 |
| 20260901120546 | 68 | 212 | 4.0 | 11.0 | 0.00 | 0.00 | 0.00 | 62 | 1022.2 |
| 20260901120105 | 68 | 238 | 3.0 | 11.0 | 0.00 | 0.00 | 0.00 | 61 | 1022.2 |
| 20260901115543 | 67 | 265 | 4.0 | 10.0 | 0.00 | 0.00 | 0.00 | 61 | 1022.1 |
| 20260901115043 | 68 | 242 | 1.0 | 9.0 | 0.00 | 0.00 | 0.00 | 63 | 1022.3 |
| 20260901114558 | 68 | 279 | 3.0 | 12.0 | 0.00 | 0.00 | 0.00 | 63 | 1022.2 |
| 20260901114044 | 67 | 237 | 4.0 | 13.0 | 0.00 | 0.00 | 0.00 | 63 | 1022.2 |
| 20260901113544 | 67 | 210 | 4.0 | 13.0 | 0.00 | 0.00 | 0.00 | 63 | 1022.2 |
| 20260901113110 | 67 | 259 | 4.0 | 10.0 | 0.00 | 0.00 | 0.00 | 63 | 1022.2 |
| 20260901112543 | 67 | 291 | 5.0 | 12.0 | 0.00 | 0.00 | 0.00 | 62 | 1022.3 |
| 20260901112046 | 67 | 259 | 6.0 | 12.0 | 0.00 | 0.00 | 0.00 | 62 | 1022.2 |
| 20260901111610 | 67 | 217 | 5.0 | 11.0 | 0.00 | 0.00 | 0.00 | 64 | 1022.3 |
| 20260901111044 | 67 | 225 | 4.0 | 11.0 | 0.00 | 0.00 | 0.00 | 63 | 1022.3 |
| 20260901110543 | 67 | 270 | 6.0 | 11.0 | 0.00 | 0.00 | 0.00 | 62 | 1022.3 |
| 20260901110115 | 66 | 229 | 7.0 | 10.0 | 0.00 | 0.00 | 0.00 | 62 | 1022.6 |
| 20260901105543 | 66 | 220 | 4.0 | 10.0 | 0.00 | 0.00 | 0.00 | 64 | 1022.7 |
| 20260901105043 | 66 | 225 | 5.0 | 10.0 | 0.00 | 0.00 | 0.00 | 63 | 1022.6 |
| 20260901104608 | 66 | 250 | 4.0 | 10.0 | 0.00 | 0.00 | 0.00 | 64 | 1022.6 |
| 20260901104044 | 66 | 245 | 3.0 | 9.0 | 0.00 | 0.00 | 0.00 | 65 | 1022.5 |
| 20260901103543 | 65 | 212 | 2.0 | 9.0 | 0.00 | 0.00 | 0.00 | 65 | 1022.6 |
| 20260901103101 | 65 | 259 | 3.0 | 11.0 | 0.00 | 0.00 | 0.00 | 65 | 1022.5 |
| 20260901102544 | 65 | 242 | 3.0 | 11.0 | 0.00 | 0.00 | 0.00 | 65 | 1022.6 |
| 20260901102044 | 65 | 229 | 2.0 | 12.0 | 0.00 | 0.00 | 0.00 | 65 | 1022.6 |
| 20260901101607 | 65 | 217 | 6.0 | 12.0 | 0.00 | 0.00 | 0.00 | 64 | 1022.7 |
| 20260901101044 | 65 | 226 | 3.0 | 11.0 | 0.00 | 0.00 | 0.00 | 65 | 1022.7 |
| 20260901100547 | 65 | 217 | 1.0 | 7.0 | 0.00 | 0.00 | 0.00 | 67 | 1022.8 |
| 20260901100110 | 64 | 221 | 1.0 | 5.0 | 0.00 | 0.00 | 0.00 | 69 | 1022.7 |
| 20260901095545 | 64 | 0 | 2.0 | 7.0 | 0.00 | 0.00 | 0.00 | 67 | 1022.8 |
| 20260901095045 | 63 | 273 | 2.0 | 7.0 | 0.00 | 0.00 | 0.00 | 68 | 1022.8 |
| 20260901094606 | 63 | 268 | 2.0 | 7.0 | 0.00 | 0.00 | 0.00 | 69 | 1022.9 |
| 20260901094043 | 63 | 219 | 2.0 | 7.0 | 0.00 | 0.00 | 0.00 | 71 | 1022.8 |
| 20260901093543 | 63 | 211 | 4.0 | 7.0 | 0.00 | 0.00 | 0.00 | 71 | 1022.9 |
| 20260901093105 | 63 | 210 | 3.0 | 7.0 | 0.00 | 0.00 | 0.00 | 71 | 1022.9 |
| 20260901092543 | 63 | 281 | 2.0 | 10.0 | 0.00 | 0.00 | 0.00 | 71 | 1023.0 |
| 20260901092045 | 63 | 225 | 4.0 | 10.0 | 0.00 | 0.00 | 0.00 | 71 | 1023.0 |
| 20260901091601 | 63 | 222 | 3.0 | 9.0 | 0.00 | 0.00 | 0.00 | 71 | 1023.0 |
| 20260901091044 | 62 | 0 | 0.0 | 0.0 | 0.00 | 0.00 | 0.00 | 72 | 1022.9 |
| 20260901090547 | 62 | 0 | 0.0 | 0.0 | 0.00 | 0.00 | 0.00 | 73 | 1023.0 |
| 20260901090106 | 62 | 0 | 0.0 | 0.0 | 0.00 | 0.00 | 0.00 | 75 | 1023.0 |
| 20260901085544 | 61 | 0 | 0.0 | 0.0 | 0.00 | 0.00 | 0.00 | 78 | 1023.0 |
| 20260901085045 | 61 | 0 | 0.0 | 0.0 | 0.00 | 0.00 | 0.00 | 79 | 1023.0 |
| 20260901084610 | 60 | 0 | 0.0 | 0.0 | 0.00 | 0.00 | 0.00 | 79 | 1022.9 |
| 20260901084044 | 60 | 0 | 0.0 | 0.0 | 0.00 | 0.00 | 0.00 | 80 | 1022.9 |
| 20260901083544 | 60 | 0 | 0.0 | 0.0 | 0.00 | 0.00 | 0.00 | 81 | 1022.8 |
| 20260901083104 | 59 | 0 | 0.0 | 0.0 | 0.00 | 0.00 | 0.00 | 83 | 1022.8 |
| 20260901082543 | 59 | 0 | 0.0 | 0.0 | 0.00 | 0.00 | 0.00 | 83 | 1022.8 |
| 20260901082043 | 59 | 0 | 0.0 | 0.0 | 0.00 | 0.00 | 0.00 | 87 | 1022.8 |
| 20260901081616 | 58 | 0 | 0.0 | 0.0 | 0.00 | 0.00 | 0.00 | 87 | 1022.9 |
| 20260901081043 | 57 | 0 | 0.0 | 0.0 | 0.00 | 0.00 | 0.00 | 88 | 1022.8 |
| 20260901080546 | 57 | 0 | 0.0 | 0.0 | 0.00 | 0.00 | 0.00 | 88 | 1022.7 |
| 20260901080107 | 56 | 0 | 0.0 | 0.0 | 0.00 | 0.00 | 0.00 | 89 | 1022.8 |
| 20260901075543 | 56 | 0 | 0.0 | 0.0 | 0.00 | 0.00 | 0.00 | 89 | 1022.7 |
| 20260901075046 | 55 | 0 | 0.0 | 0.0 | 0.00 | 0.00 | 0.00 | 89 | 1022.8 |
| 20260901074603 | 55 | 0 | 0.0 | 0.0 | 0.00 | 0.00 | 0.00 | 90 | 1022.7 |
| 20260901074046 | 55 | 0 | 0.0 | 0.0 | 0.00 | 0.00 | 0.00 | 90 | 1022.7 |
| 20260901073545 | 55 | 0 | 0.0 | 0.0 | 0.00 | 0.00 | 0.00 | 91 | 1022.7 |
| 20260901073102 | 55 | 0 | 0.0 | 0.0 | 0.00 | 0.00 | 0.00 | 91 | 1022.7 |
| 20260901072545 | 55 | 0 | 0.0 | 0.0 | 0.00 | 0.00 | 0.00 | 91 | 1022.7 |
| 20260901072044 | 54 | 0 | 0.0 | 0.0 | 0.00 | 0.00 | 0.00 | 91 | 1022.7 |
| 20260901071601 | 54 | 0 | 0.0 | 0.0 | 0.00 | 0.00 | 0.00 | 91 | 1022.7 |
| 20260901071043 | 54 | 0 | 0.0 | 0.0 | 0.00 | 0.00 | 0.00 | 92 | 1022.7 |
| 20260901070543 | 54 | 0 | 0.0 | 0.0 | 0.00 | 0.00 | 0.00 | 91 | 1022.6 |
| 20260901070058 | 54 | 0 | 0.0 | 0.0 | 0.00 | 0.00 | 0.00 | 92 | 1022.7 |
| 20260901065544 | 53 | 0 | 0.0 | 0.0 | 0.00 | 0.00 | 0.00 | 93 | 1022.7 |
| 20260901065044 | 53 | 0 | 0.0 | 0.0 | 0.00 | 0.00 | 0.00 | 92 | 1022.7 |
| 20260901064602 | 53 | 0 | 0.0 | 0.0 | 0.00 | 0.00 | 0.00 | 92 | 1022.7 |
| 20260901064044 | 53 | 0 | 0.0 | 0.0 | 0.00 | 0.00 | 0.00 | 92 | 1022.7 |
| 20260901063543 | 52 | 0 | 0.0 | 0.0 | 0.00 | 0.00 | 0.00 | 91 | 1022.6 |
| 20260901063106 | 52 | 0 | 0.0 | 0.0 | 0.00 | 0.00 | 0.00 | 91 | 1022.5 |
| 20260901062543 | 52 | 0 | 0.0 | 0.0 | 0.00 | 0.00 | 0.00 | 91 | 1022.4 |
| 20260901062043 | 52 | 0 | 0.0 | 0.0 | 0.00 | 0.00 | 0.00 | 92 | 1022.4 |